Matagami Airport
CYNM : now visible

Airfield :











YOU CAN JOIN US ON...

 
LOGIN :

Register | Disclaimer

   EN    FR    IT 

 









Legend :    VFR   Marginal VFR   IFR   Intensive IFR   Very Intensive IFR
Visi :
Ceiling :
>= 8 km
>= 3000ft
5 to 8 km
1000 to 3000 ft
1500m to 5 km
500 to 1000 ft
800 to 1500m
200 to 500 ft
< 800m
< 200 ft
Symbols :   Thunderstorms  Fog  Heavy snow  Heavy precipitations  Wind > 20 kt






- Airport Elevation : 918 ft
- IATA code : YNM


CYNM - Matagami

CURRENT METAR :
  • 231500Z AUTO 28008KT 7SM FEW018 M26/M30 A2976 RMK SLP113

EXPIRED METARs :
  • 231459Z AUTO 27007KT 6SM HZ FEW018 M26/M30 A2976 RMK SLP117
  • 231449Z AUTO 28008KT 3SM HZ CLR M27/M30 A2976 RMK SLP117
  • 231400Z AUTO 27009KT 8SM CLR M28/M31 A2975 RMK SLP109
  • 231340Z AUTO 26007KT 6SM HZ CLR M28/M31 A2975 RMK SLP115
  • 231321Z AUTO 26006KT 5SM HZ CLR M28/M31 A2975 RMK SLP116
  • 231300Z AUTO 27006KT 9SM CLR M28/M31 A2976 RMK SLP110

TAF N/A
CZUL FIR / North America



MET'MAP, your aeronautical weather chart ! - Copyright ORBIFLY December 2007 - Disclaimer

ORBIFLY MET'MAP TEAM :

Programming & Development : Alexandra Zaïnal
Concept & original design : Baudouin d'Aumeries
Assistance for programming : Marc-Olivier Méhu
Technical & hardware support : Manuel Goepfert

Contact : metmap@orbifly.com




SOURCES & CREDITS :

   NOAA       Earth
Advisory